Погода в Вангажи

Латвия     57°05′37″N   24°32′35″E
темп.,
°C
ветер,
м/с
пор.,
м/с
влажн.,
%
обл.,
%
осадки,
мм/ч
давл.,
гПа
погр.,
м
25 февраля, чт
чт2523:00+3юз3129469 0.0 1021399
02:00+3юз389762 0.0 1021215
05:00+4юз3119799 0.0 1019409
08:00+4юз2898100 0.0 1020243
11:00+7зюз31093100 0.0 1019562
14:00+10зюз4128476 0.0 1019777
17:00+9зюз5168397 0.0 1018607
20:00+6юз5158899 0.0 1016479
26 февраля, пт
пт2623:00+5юз4139469 0.0 1014478
02:00+6зюз5149484 0.2 1013596
05:00+6з51287100 0.1 1012927
08:00+2зюз3138867 0.2 1012645
11:00+5з5118073 0.0 10121092
14:00+6зюз4118186 0.0 1011940
17:00+5зюз41184100 0.0 1010794
20:00+3зсз4118791 0.0 1011551
27 февраля, сб
сб2723:00+2зсз3119036 0.0 1010438
02:00+2сз5129065 0.0 1012637
05:00+1ссз61187100 0.1 1013918
08:000ссз5109288 0.1 1016550
11:00+1ссз4884100 0.0 1018731
14:00+1ссз5985100 0.0 1021600
17:00+1ссз4986100 0.0 1023589
20:00+1ссз3988100 0.0 1025399
28 февраля, вс
вс2823:00−2сз389515 0.0 1026258
02:00−2сз279624 0.0 1028236
05:00−2сз269467 0.0 1027232
08:000зсз278783 0.0 1028322
11:00+3зсз487875 0.0 1026449
14:00+5сз6117787 0.1 1026765
17:00+3сз41185100 0.0 1025610
20:00+2сз4108998 0.0 1027343
1 марта, пн
пн123:00+1сз4109238 0.0 1027329
02:00+1сз3109327 0.0 1028288
05:00+1сз39930 0.0 1028281
08:000зсз279515 0.0 1029202
11:00+4зсз367952 0.0 1029344
14:00+6з257375 0.0 1028420
17:00+5юз2282100 0.0 102742
20:00+3зюз3109093 0.0 1027295